Tracking 19176 objects as of 25-May-2018
HD Live streaming from Space Station
objects crossing your sky now

COSMOS 1091

Track COSMOS 1091 now!
10-day predictions
COSMOS 1091 is classified as:


NORAD ID: 11320
Int'l Code: 1979-028A
Perigee: 966.5 km
Apogee: 1,013.6 km
Inclination: 82.9 °
Period: 104.8 minutes
Semi major axis: 7361 km
RCS: 2.1761 m2 (large)
Launch date: April 7, 1979
Source: Commonwealth of Independent States (former USSR) (CIS)
Launch site: PLESETSK MISSILE AND SPACE COMPLEX (PKMTR)
aabbcc
Your satellite tracking list
Your tracking list is empty




NASA's NSSDC Master Catalog

Two Line Element Set (TLE):
1 11320U 79028A   18144.57252578 +.00000045 +00000-0 +31344-4 0  9990
2 11320 082.9214 160.3672 0032032 093.3598 019.9257 13.74649566962402
Source of the keplerian elements: AFSPC